Other Surface Observations
Issued by NWS Missoula, MT

Home | Current Version | Previous Version | Text Only | Print | Product List | Glossary On
Versions: 1 2 3 4 5 6 7 8 9 10 11 12 13 14 15 16 17 18 19 20 21 22 23 24 25 26 27 28 29 30 31 32 33 34 35 36 37 38 39 40 41 42 43 44 45 46 47 48 49 50
000
SXUS55 KMSO 271113
OSOMSO
MONTANA AWOS SUMMARY
NATIONAL WEATHER SERVICE MISSOULA MT
513 AM MDT WED AUG 27 2014

Montana AWOS Reports

SCOBEY      |K9S2 271055Z AUTO 00000KT 09/05 A3006 RMK AO1 T00890050
PLAINS      |KS34 271055Z AUTO 00000KT 25SM 08/04 A3010 RMK AO1 T00780044




USA.gov is the U.S. government's official web portal to all federal, state and local government web resources and services.